TimeMST,TemperatureF,Dew PointF,Humidity,Sea Level PressureIn,VisibilityMPH,Wind Direction,Wind SpeedMPH,Gust SpeedMPH,PrecipitationIn,Events,Conditions,WindDirDegrees,DateUTC
12:06 AM,15.8,14.0,93,30.15,10.0,ENE,3.5,-,N/A,,Mostly Cloudy,70,2013-02-07 07:06:00
12:21 AM,14.0,10.4,86,30.15,10.0,Calm,Calm,-,N/A,,Scattered Clouds,0,2013-02-07 07:21:00
12:53 AM,15.1,12.0,88,30.23,10.0,ENE,4.6,-,N/A,,Clear,60,2013-02-07 07:53:00
1:31 AM,12.2,10.4,92,30.16,10.0,NE,3.5,-,N/A,,Scattered Clouds,40,2013-02-07 08:31:00
1:39 AM,14.0,12.2,93,30.16,3.0,Calm,Calm,-,N/A,,Mostly Cloudy,0,2013-02-07 08:39:00
1:51 AM,15.8,12.2,86,30.16,1.5,NE,3.5,-,N/A,,Overcast,40,2013-02-07 08:51:00
1:53 AM,16.0,14.0,92,30.24,1.0,NNE,3.5,-,N/A,,Overcast,30,2013-02-07 08:53:00
2:04 AM,17.6,17.6,100,30.17,0.8,Calm,Calm,-,N/A,,Overcast,0,2013-02-07 09:04:00
2:53 AM,17.1,15.1,92,30.26,0.2,NNE,3.5,-,N/A,Fog,Light Freezing Fog,20,2013-02-07 09:53:00
3:47 AM,12.2,8.6,85,30.17,1.5,ENE,3.5,-,N/A,,Mostly Cloudy,60,2013-02-07 10:47:00
3:49 AM,12.2,8.6,85,30.17,3.0,ENE,4.6,-,N/A,,Mostly Cloudy,70,2013-02-07 10:49:00
3:53 AM,12.0,8.1,84,30.28,10.0,ENE,4.6,-,N/A,,Scattered Clouds,60,2013-02-07 10:53:00
4:53 AM,10.0,3.9,76,30.32,10.0,Calm,Calm,-,N/A,,Clear,0,2013-02-07 11:53:00
5:53 AM,6.1,1.9,83,30.33,10.0,ENE,3.5,-,N/A,,Clear,60,2013-02-07 12:53:00
6:53 AM,7.0,3.9,87,30.35,10.0,East,4.6,-,N/A,,Clear,90,2013-02-07 13:53:00
7:53 AM,12.0,7.0,80,30.35,10.0,East,6.9,-,N/A,,Clear,90,2013-02-07 14:53:00
8:53 AM,15.1,12.0,88,30.38,10.0,Calm,Calm,-,N/A,,Clear,0,2013-02-07 15:53:00
9:53 AM,17.1,10.9,77,30.36,10.0,NNE,3.5,-,N/A,,Clear,20,2013-02-07 16:53:00
10:53 AM,24.1,12.0,60,30.32,10.0,Calm,Calm,-,N/A,,Clear,0,2013-02-07 17:53:00
11:53 AM,25.0,15.1,66,30.31,10.0,Calm,Calm,-,N/A,,Clear,0,2013-02-07 18:53:00
12:53 PM,28.0,16.0,61,30.25,10.0,South,3.5,-,N/A,,Clear,170,2013-02-07 19:53:00
1:53 PM,30.0,15.1,54,30.21,10.0,Calm,Calm,-,N/A,,Clear,0,2013-02-07 20:53:00
2:53 PM,34.0,15.1,46,30.16,10.0,Calm,Calm,-,N/A,,Clear,0,2013-02-07 21:53:00
3:53 PM,33.1,16.0,50,30.16,10.0,NNE,3.5,-,N/A,,Clear,30,2013-02-07 22:53:00
4:53 PM,32.0,15.1,50,30.17,10.0,Calm,Calm,-,N/A,,Clear,0,2013-02-07 23:53:00
5:53 PM,23.0,12.0,63,30.22,10.0,Calm,Calm,-,N/A,,Clear,0,2013-02-08 00:53:00
6:53 PM,14.0,7.0,74,30.26,10.0,Calm,Calm,-,N/A,,Clear,0,2013-02-08 01:53:00
7:53 PM,12.9,7.0,77,30.23,10.0,Calm,Calm,-,N/A,,Clear,0,2013-02-08 02:53:00
8:53 PM,10.9,6.1,81,30.23,10.0,ENE,4.6,-,N/A,,Clear,60,2013-02-08 03:53:00
9:53 PM,10.0,3.9,76,30.23,10.0,Calm,Calm,-,N/A,,Clear,0,2013-02-08 04:53:00
10:53 PM,8.1,1.9,76,30.20,10.0,NE,3.5,-,N/A,,Clear,40,2013-02-08 05:53:00
11:53 PM,12.0,5.0,73,30.17,10.0,Calm,Calm,-,N/A,,Clear,0,2013-02-08 06:53:00